Time,TemperatureF,DewpointF,PressureIn,WindDirection,WindDirectionDegrees,WindSpeedMPH,WindSpeedGustMPH,Humidity,HourlyPrecipIn,Conditions,Clouds,dailyrainin,SolarRadiationWatts/m^2,SoftwareType,DateUTC
2013-04-05 00:41:00,32.6,29.0,30.14,ESE,120,13.0,22.0,85,0.00,,,0.00,0,weatherlink.com 1.10,2013-04-05 06:41:00,
2013-04-05 00:56:00,32.6,29.0,30.12,ESE,121,14.0,21.0,85,0.00,,,0.00,0,weatherlink.com 1.10,2013-04-05 06:56:00,
2013-04-05 01:11:00,32.8,29.0,30.11,East,84,20.0,23.0,85,0.00,,,0.00,0,weatherlink.com 1.10,2013-04-05 07:11:00,
2013-04-05 01:26:00,33.0,29.0,30.11,East,83,10.0,23.0,84,0.00,,,0.00,0,weatherlink.com 1.10,2013-04-05 07:26:00,
2013-04-05 01:41:00,33.1,29.0,30.10,East,99,16.0,19.0,84,0.00,,,0.00,0,weatherlink.com 1.10,2013-04-05 07:41:00,
2013-04-05 01:56:00,33.1,29.0,30.09,East,101,9.0,24.0,84,0.00,,,0.00,0,weatherlink.com 1.10,2013-04-05 07:56:00,
2013-04-05 02:11:00,33.1,29.0,30.07,East,90,11.0,22.0,84,0.00,,,0.00,0,weatherlink.com 1.10,2013-04-05 08:11:00,
2013-04-05 02:26:00,33.0,29.0,30.05,ESE,104,18.0,24.0,85,0.00,,,0.00,0,weatherlink.com 1.10,2013-04-05 08:26:00,
2013-04-05 02:41:00,33.2,29.0,30.05,SSE,157,13.0,25.0,84,0.00,,,0.00,0,weatherlink.com 1.10,2013-04-05 08:41:00,
2013-04-05 02:56:00,33.3,29.0,30.06,ESE,123,11.0,15.0,83,0.00,,,0.00,0,weatherlink.com 1.10,2013-04-05 08:56:00,
2013-04-05 03:11:00,33.5,29.0,30.05,East,101,13.0,18.0,83,0.00,,,0.00,0,weatherlink.com 1.10,2013-04-05 09:11:00,
2013-04-05 03:26:00,33.5,29.0,30.04,ESE,111,10.0,15.0,83,0.00,,,0.00,0,weatherlink.com 1.10,2013-04-05 09:26:00,
2013-04-05 03:41:00,33.6,29.0,30.02,East,99,18.0,22.0,83,0.00,,,0.00,0,weatherlink.com 1.10,2013-04-05 09:41:00,
2013-04-05 03:56:00,33.6,29.0,30.01,ESE,102,12.0,23.0,83,0.00,,,0.00,0,weatherlink.com 1.10,2013-04-05 09:56:00,
2013-04-05 04:27:00,33.8,30.0,30.00,East,84,13.0,19.0,84,0.00,,,0.00,0,weatherlink.com 1.10,2013-04-05 10:27:00,
2013-04-05 04:42:00,33.5,30.0,30.00,ESE,108,12.0,19.0,87,0.00,,,0.00,0,weatherlink.com 1.10,2013-04-05 10:42:00,
2013-04-05 04:57:00,33.5,30.0,30.01,East,98,11.0,15.0,87,0.00,,,0.00,0,weatherlink.com 1.10,2013-04-05 10:57:00,
2013-04-05 05:12:00,33.4,31.0,30.00,East,89,15.0,17.0,89,0.00,,,0.00,0,weatherlink.com 1.10,2013-04-05 11:12:00,
2013-04-05 05:27:00,33.5,31.0,29.99,East,90,16.0,16.0,89,0.00,,,0.00,0,weatherlink.com 1.10,2013-04-05 11:27:00,
2013-04-05 05:42:00,33.5,31.0,29.97,East,93,15.0,18.0,90,0.01,,,0.01,0,weatherlink.com 1.10,2013-04-05 11:42:00,
2013-04-05 05:57:00,33.7,31.0,29.95,SE,146,12.0,19.0,89,0.01,,,0.01,0,weatherlink.com 1.10,2013-04-05 11:57:00,
2013-04-05 06:12:00,34.0,31.0,29.95,ESE,119,15.0,18.0,88,0.01,,,0.01,0,weatherlink.com 1.10,2013-04-05 12:12:00,
2013-04-05 06:27:00,33.8,31.0,29.96,SE,142,9.0,13.0,89,0.01,,,0.01,0,weatherlink.com 1.10,2013-04-05 12:27:00,
2013-04-05 06:42:00,33.4,31.0,29.95,SE,143,9.0,12.0,90,0.00,,,0.01,0,weatherlink.com 1.10,2013-04-05 12:42:00,
2013-04-05 06:57:00,33.3,31.0,29.94,East,82,9.0,15.0,90,0.00,,,0.01,19,weatherlink.com 1.10,2013-04-05 12:57:00,
2013-04-05 07:12:00,33.6,31.0,29.93,East,84,10.0,18.0,89,0.00,,,0.01,21,weatherlink.com 1.10,2013-04-05 13:12:00,
2013-04-05 07:27:00,33.9,31.0,29.94,East,87,9.0,17.0,89,0.00,,,0.01,35,weatherlink.com 1.10,2013-04-05 13:27:00,
2013-04-05 07:42:00,34.3,31.0,29.94,East,99,7.0,16.0,88,0.00,,,0.01,33,weatherlink.com 1.10,2013-04-05 13:42:00,
2013-04-05 07:57:00,34.7,31.0,29.94,East,100,8.0,12.0,87,0.00,,,0.01,40,weatherlink.com 1.10,2013-04-05 13:57:00,
2013-04-05 08:12:00,35.0,31.0,29.94,ESE,109,10.0,14.0,86,0.00,,,0.01,46,weatherlink.com 1.10,2013-04-05 14:12:00,
2013-04-05 08:27:00,35.5,31.0,29.93,ENE,76,10.0,14.0,85,0.00,,,0.01,62,weatherlink.com 1.10,2013-04-05 14:27:00,
2013-04-05 08:42:00,36.2,32.0,29.91,ENE,76,10.0,15.0,84,0.00,,,0.01,76,weatherlink.com 1.10,2013-04-05 14:42:00,
2013-04-05 08:57:00,36.9,33.0,29.91,ESE,117,11.0,13.0,84,0.00,,,0.01,142,weatherlink.com 1.10,2013-04-05 14:57:00,
2013-04-05 09:12:00,38.3,33.0,29.91,SE,130,10.0,13.0,82,0.00,,,0.01,278,weatherlink.com 1.10,2013-04-05 15:12:00,
2013-04-05 09:27:00,39.7,34.0,29.90,East,84,13.0,16.0,79,0.00,,,0.01,411,weatherlink.com 1.10,2013-04-05 15:27:00,
2013-04-05 09:42:00,42.0,35.0,29.90,SE,130,10.0,15.0,76,0.00,,,0.01,503,weatherlink.com 1.10,2013-04-05 15:42:00,
2013-04-05 09:58:00,43.7,35.0,29.89,ENE,74,5.0,13.0,71,0.00,,,0.01,596,weatherlink.com 1.10,2013-04-05 15:58:00,
2013-04-05 10:13:00,45.5,35.0,29.88,SE,138,6.0,14.0,67,0.00,,,0.01,568,weatherlink.com 1.10,2013-04-05 16:13:00,
2013-04-05 10:28:00,46.1,34.0,29.87,ESE,112,5.0,10.0,64,0.00,,,0.01,526,weatherlink.com 1.10,2013-04-05 16:28:00,
2013-04-05 10:43:00,48.3,35.0,29.87,East,98,9.0,14.0,61,0.00,,,0.01,650,weatherlink.com 1.10,2013-04-05 16:43:00,
2013-04-05 10:58:00,49.0,35.0,29.86,ESE,123,10.0,12.0,59,0.00,,,0.01,550,weatherlink.com 1.10,2013-04-05 16:58:00,
2013-04-05 11:13:00,50.3,34.0,29.86,ESE,115,7.0,10.0,55,0.00,,,0.01,533,weatherlink.com 1.10,2013-04-05 17:13:00,
2013-04-05 11:44:00,52.8,34.0,29.84,ENE,73,4.0,9.0,49,0.00,,,0.01,570,weatherlink.com 1.10,2013-04-05 17:44:00,
2013-04-05 11:58:00,53.9,34.0,29.84,East,88,6.0,8.0,48,0.00,,,0.01,390,weatherlink.com 1.10,2013-04-05 17:58:00,
2013-04-05 12:13:00,55.4,35.0,29.83,SSW,197,4.0,6.0,46,0.00,,,0.01,564,weatherlink.com 1.10,2013-04-05 18:13:00,
2013-04-05 12:28:00,57.7,36.0,29.82,SSW,207,1.0,3.0,44,0.00,,,0.01,657,weatherlink.com 1.10,2013-04-05 18:28:00,
2013-04-05 12:43:00,59.3,36.0,29.82,SSW,197,1.0,5.0,42,0.00,,,0.01,763,weatherlink.com 1.10,2013-04-05 18:43:00,
2013-04-05 12:58:00,59.7,36.0,29.81,West,269,3.0,6.0,41,0.00,,,0.01,758,weatherlink.com 1.10,2013-04-05 18:58:00,
2013-04-05 13:13:00,60.5,36.0,29.81,NNW,330,3.0,5.0,40,0.00,,,0.01,805,weatherlink.com 1.10,2013-04-05 19:13:00,
2013-04-05 13:28:00,61.1,37.0,29.80,SW,225,0.0,5.0,41,0.00,,,0.01,568,weatherlink.com 1.10,2013-04-05 19:28:00,
2013-04-05 13:43:00,61.7,37.0,29.79,NW,315,2.0,2.0,40,0.00,,,0.01,754,weatherlink.com 1.10,2013-04-05 19:43:00,
2013-04-05 13:58:00,62.5,37.0,29.79,NNW,331,1.0,9.0,39,0.00,,,0.01,464,weatherlink.com 1.10,2013-04-05 19:58:00,
2013-04-05 14:13:00,62.7,37.0,29.79,North,350,3.0,9.0,39,0.00,,,0.01,710,weatherlink.com 1.10,2013-04-05 20:13:00,
2013-04-05 14:28:00,62.3,38.0,29.79,NW,324,7.0,13.0,41,0.00,,,0.01,700,weatherlink.com 1.10,2013-04-05 20:28:00,
2013-04-05 14:43:00,63.5,39.0,29.79,NW,318,6.0,10.0,40,0.00,,,0.01,698,weatherlink.com 1.10,2013-04-05 20:43:00,
2013-04-05 14:58:00,63.6,39.0,29.78,NNW,327,8.0,11.0,40,0.00,,,0.01,701,weatherlink.com 1.10,2013-04-05 20:58:00,
2013-04-05 15:13:00,64.1,39.0,29.78,NW,319,1.0,9.0,40,0.00,,,0.01,274,weatherlink.com 1.10,2013-04-05 21:13:00,
2013-04-05 15:28:00,64.2,39.0,29.77,NW,323,8.0,11.0,40,0.00,,,0.01,302,weatherlink.com 1.10,2013-04-05 21:28:00,
2013-04-05 15:43:00,63.6,39.0,29.77,NW,326,3.0,11.0,41,0.00,,,0.01,241,weatherlink.com 1.10,2013-04-05 21:43:00,
2013-04-05 15:58:00,63.5,39.0,29.77,NW,316,5.0,9.0,41,0.00,,,0.01,172,weatherlink.com 1.10,2013-04-05 21:58:00,
2013-04-05 16:13:00,63.2,40.0,29.77,NW,315,2.0,6.0,42,0.00,,,0.01,172,weatherlink.com 1.10,2013-04-05 22:13:00,
2013-04-05 16:58:00,62.5,41.0,29.78,WSW,255,3.0,6.0,46,0.00,,,0.01,33,weatherlink.com 1.10,2013-04-05 22:58:00,
2013-04-05 17:13:00,58.4,46.0,29.78,WSW,246,5.0,14.0,64,0.00,,,0.01,67,weatherlink.com 1.10,2013-04-05 23:13:00,
2013-04-05 17:43:00,57.1,47.0,29.78,WSW,242,3.0,5.0,70,0.00,,,0.01,91,weatherlink.com 1.10,2013-04-05 23:43:00,
2013-04-05 17:58:00,56.7,48.0,29.79,WNW,291,2.0,4.0,72,0.00,,,0.01,79,weatherlink.com 1.10,2013-04-05 23:58:00,
2013-04-05 18:28:00,56.5,48.0,29.79,West,277,0.0,0.0,74,0.00,,,0.01,46,weatherlink.com 1.10,2013-04-06 00:28:00,
2013-04-05 19:13:00,55.3,49.0,29.78,West,277,0.0,0.0,78,0.00,,,0.01,12,weatherlink.com 1.10,2013-04-06 01:13:00,
2013-04-05 19:58:00,52.7,48.0,29.78,West,277,0.0,0.0,83,0.00,,,0.01,0,weatherlink.com 1.10,2013-04-06 01:58:00,
2013-04-05 20:14:00,51.8,47.0,29.78,West,277,0.0,0.0,84,0.00,,,0.01,0,weatherlink.com 1.10,2013-04-06 02:14:00,
2013-04-05 20:28:00,51.3,47.0,29.79,West,277,0.0,0.0,86,0.00,,,0.01,0,weatherlink.com 1.10,2013-04-06 02:28:00,
2013-04-05 20:44:00,50.0,47.0,29.80,West,277,1.0,3.0,88,0.00,,,0.01,0,weatherlink.com 1.10,2013-04-06 02:44:00,
2013-04-05 20:59:00,51.0,47.0,29.82,WNW,296,6.0,9.0,85,0.00,,,0.01,0,weatherlink.com 1.10,2013-04-06 02:59:00,
2013-04-05 21:13:00,53.8,45.0,29.82,West,268,12.0,18.0,71,0.00,,,0.01,0,weatherlink.com 1.10,2013-04-06 03:13:00,
2013-04-05 21:28:00,53.8,43.0,29.80,WSW,258,4.0,9.0,68,0.00,,,0.01,0,weatherlink.com 1.10,2013-04-06 03:28:00,
2013-04-05 22:29:00,47.3,41.0,29.82,NNW,341,2.0,4.0,80,0.00,,,0.01,0,weatherlink.com 1.10,2013-04-06 04:29:00,
2013-04-05 22:59:00,44.9,40.0,29.84,NW,323,8.0,8.0,84,0.00,,,0.01,0,weatherlink.com 1.10,2013-04-06 04:59:00,
2013-04-05 23:29:00,48.5,42.0,29.84,West,260,3.0,6.0,77,0.00,,,0.01,0,weatherlink.com 1.10,2013-04-06 05:29:00,
2013-04-05 23:44:00,49.5,42.0,29.85,West,280,4.0,8.0,75,0.00,,,0.01,0,weatherlink.com 1.10,2013-04-06 05:44:00,